Wetbulb
74.98 75.89 75.46 76.07 76.84 76.70 75.47 75.20 74.83 75.17 74.40 74.90 74.85 73.46 72.32 71.01 70.99 70.04 69.44 69.32 68.58 67.16 64.65 62.61 61.76 62.16 61.42 60.98 60.20 59.01 56.18 55.20 53.98 56.78 58.31 57.86 58.42 58.95 59.25 58.23 58.62 57.81 58.77
75.32 75.55 76.17 76.28 76.64 76.88 76.84 76.22 76.27 75.03 75.91 75.67 73.80 72.30 71.58 70.95 69.45 68.58 68.28 69.12 68.76 66.44 65.01 62.77 62.41 63.69 60.98 61.25 58.90 56.26 56.48 57.58 55.45 53.80 54.92 56.69 58.01 57.17 56.12 55.51 56.68 57.96 56.98
75.41 76.06 76.18 76.30 76.75 76.77 77.03 77.39 76.51 76.41 75.93 75.04 73.67 71.94 70.93 70.15 69.41 68.98 69.25 68.51 66.94 66.29 64.04 62.88 62.35 61.78 60.76 59.06 58.16 56.49 57.79 57.90 55.06 52.90 53.95 57.33 57.40 56.07 54.68 55.30 54.72 55.13 56.33
74.76 75.90 76.13 76.37 76.83 77.45 77.46 77.51 77.60 76.42 76.48 75.94 74.35 72.61 70.56 69.95 69.65 69.87 69.53 67.38 65.39 64.46 63.58 63.02 62.40 61.87 58.89 57.79 56.73 56.37 55.14 53.68 52.50 52.49 54.56 55.77 55.06 54.39 53.96 52.54 51.48 53.64 53.59
72.36 75.04 75.69 76.42 77.28 77.27 77.53 77.26 77.26 77.05 76.78 75.76 73.02 71.17 70.07 69.77 71.16 69.24 69.14 67.50 64.64 63.19 63.38 63.32 62.80 63.35 62.95 60.56 56.85 54.53 52.77 50.74 51.56 53.06 53.28 53.24 52.88 50.82 51.36 52.04 51.05 52.20 53.72
72.51 72.70 75.82 75.89 77.14 76.68 77.07 76.85 77.00 76.63 74.47 73.18 71.37 70.65 70.41 72.00 66.99 66.00 68.84 65.96 64.42 62.70 62.22 62.91 62.88 62.39 61.47 61.30 60.83 59.25 57.70 52.49 52.49 55.29 51.23 52.23 50.58 50.94 51.96 51.53 51.25 51.01 50.19
72.38 74.42 76.10 76.28 76.24 76.64 76.30 76.37 75.87 75.79 74.43 71.39 71.22 71.48 70.17 67.04 63.08 64.50 65.80 63.83 62.84 62.28 62.64 62.19 62.07 61.57 57.24 54.49 54.91 56.64 56.75 58.25 59.66 53.01 50.68 52.14 49.60 50.41 51.15 51.66 51.97 51.53 51.93
74.40 75.68 76.65 76.73 76.29 75.93 75.44 75.34 74.85 74.22 73.41 71.98 71.29 70.88 65.52 63.58 61.47 61.69 63.09 61.79 61.83 62.54 63.06 62.56 60.09 51.85 50.82 49.67 49.73 50.61 51.97 53.45 53.04 53.27 52.29 53.74 52.36 51.42 51.43 52.99 53.59 53.58 54.55
74.98 75.87 76.30 76.26 75.76 75.38 74.82 74.04 73.42 72.80 72.26 70.49 70.17 68.44 63.33 60.58 59.72 59.24 60.29 60.81 60.67 61.25 56.74 57.89 52.91 49.00 52.01 51.67 46.76 49.21 49.68 51.69 53.60 55.01 55.59 56.20 55.43 55.17 54.33 53.22 51.79 52.07 51.00
75.23 76.31 76.62 76.26 75.35 74.38 74.53 73.43 72.53 72.01 71.06 70.45 68.20 67.30 62.27 60.61 57.94 56.68 60.28 60.54 58.04 56.92 50.16 47.19 52.81 47.36 49.38 49.05 44.53 46.38 47.80 47.57 48.05 50.72 52.15 54.40 54.82 53.68 54.85 53.22 52.97 51.25 51.39
75.81 75.22 74.44 73.35 72.70 73.23 73.51 72.68 71.53 69.91 68.91 67.61 67.05 66.47 63.83 59.74 56.43 55.16 57.60 55.91 54.05 53.42 53.56 49.75 46.65 49.81 47.65 46.87 47.38 43.38 48.32 47.62 50.33 48.74 48.15 48.99 50.03 49.45 49.95 53.43 53.76 53.05 51.59
73.92 73.32 72.72 71.63 72.11 72.64 71.10 70.24 68.71 67.99 66.65 65.89 65.78 64.88 61.83 58.41 54.06 51.32 52.25 52.16 54.45 51.73 53.58 51.17 48.98 47.73 46.59 46.66 47.02 48.52 49.04 49.67 47.58 47.70 45.39 47.16 48.31 48.38 48.68 53.42 53.98 53.64 54.33
73.15 72.45 71.14 71.12 70.75 69.82 69.09 67.95 68.44 67.26 66.12 65.16 65.54 63.08 59.08 56.92 52.87 50.56 50.20 51.13 52.49 52.31 52.27 50.97 51.14 49.29 48.41 48.27 49.80 49.59 48.16 45.68 45.69 45.21 45.15 46.64 47.95 49.41 46.07 49.30 53.46 53.20 53.46
71.42 71.56 71.24 70.07 69.21 69.29 69.29 68.33 67.50 66.60 65.40 65.33 64.50 63.92 58.96 55.75 54.56 54.39 50.34 48.63 51.35 52.34 53.52 49.80 52.62 51.20 51.48 49.86 49.07 47.45 45.48 46.77 46.66 45.40 45.43 46.32 48.23 47.83 47.28 45.75 48.77 49.91 49.22
70.63 70.57 70.18 69.55 68.13 59.85 53.69 51.51 60.83 53.64 55.08 64.82 64.19 63.01 60.54 56.27 57.15 52.52 52.13 52.96 52.02 45.80 46.50 49.93 47.76 46.15 45.11 45.03 46.04 45.92 44.49 45.25 46.50 46.07 46.43 46.76 46.39 47.74 46.82 46.55 46.15 47.62 48.29
69.39 68.40 68.31 67.50 63.39 59.37 57.30 53.66 47.73 46.34 45.29 46.44 52.56 59.16 55.53 51.78 46.50 44.69 43.33 43.44 44.13 45.78 48.76 45.85 45.06 44.84 44.46 43.53 43.53 44.06 44.21 45.92 45.55 45.44 45.19 45.13 44.94 45.14 46.11 46.32 45.39 44.61 45.44
68.42 67.88 67.55 66.38 65.53 61.64 58.61 55.43 50.87 47.97 45.15 42.85 43.07 44.04 46.20 44.52 41.34 41.52 41.78 42.21 43.42 46.19 45.92 44.41 43.65 43.40 43.27 43.40 43.25 43.34 42.38 42.73 43.99 44.31 43.78 44.43 44.06 44.09 44.26 43.84 44.89 44.98 44.94
65.14 62.44 66.43 66.62 65.73 62.03 61.32 58.54 53.80 52.25 51.35 48.35 42.80 42.76 40.36 40.39 40.86 41.71 43.63 46.72 46.04 46.19 44.35 43.50 42.93 42.98 43.52 43.25 42.69 42.76 42.71 42.53 43.30 44.65 45.07 45.72 45.85 43.34 43.07 42.77 42.43 43.36 43.91
61.26 61.30 63.05 64.39 64.48 63.31 63.16 59.42 59.26 54.04 49.22 46.19 44.55 43.08 42.35 41.50 41.84 43.11 44.84 49.06 46.18 44.68 43.72 43.05 43.73 42.93 42.50 43.55 44.55 44.98 43.80 42.75 43.27 43.48 43.79 44.89 44.46 45.21 43.66 43.45 42.61 43.81 43.80
61.28 61.58 62.61 63.61 62.96 63.24 63.11 61.22 59.27 52.61 49.77 46.94 44.98 43.85 45.10 46.61 47.54 48.34 50.42 47.21 45.64 44.22 43.50 42.88 42.86 42.85 43.70 43.83 43.08 43.57 42.81 42.77 42.07 42.75 43.43 44.14 43.69 44.17 43.59 43.97 42.46 41.71 41.75
61.82 59.59 60.35 63.84 63.00 62.44 60.96 60.10 56.43 53.35 51.29 49.89 47.79 47.50 46.05 48.42 49.23 50.82 48.46 47.08 45.92 44.67 43.75 43.02 41.79 42.15 42.50 43.01 41.89 41.82 41.49 42.19 41.77 42.38 43.54 43.71 43.14 43.28 43.80 43.29 43.61 42.62 42.31
59.44 59.04 59.72 60.05 60.76 61.39 61.11 60.89 59.34 55.87 53.73 52.19 49.27 47.98 43.99 46.96 50.65 48.99 47.11 47.31 46.27 45.19 44.53 43.74 42.98 42.94 43.05 41.36 40.35 39.61 38.77 39.25 40.69 42.16 42.93 43.70 43.60 43.23 43.83 43.10 43.28 42.80 42.21
59.67 59.25 58.77 59.46 60.57 59.21 60.80 60.81 61.43 58.59 56.70 53.87 51.19 48.81 47.35 48.50 52.20 49.39 48.03 47.12 45.53 44.59 44.94 44.65 43.64 43.03 42.30 40.72 39.52 38.27 36.48 36.37 38.17 39.86 39.50 41.66 42.62 42.48 43.23 42.85 42.76 42.87 42.63
57.37 59.73 60.57 60.34 58.78 59.00 59.53 59.34 59.24 54.73 54.88 53.74 52.36 51.72 50.73 49.67 48.99 48.52 48.05 46.82 45.58 44.71 44.42 43.73 43.06 41.34 40.13 39.52 38.80 36.37 34.43 33.36 37.20 36.57 38.05 40.15 41.63 41.95 42.63 42.86 42.96 43.77 42.60
58.49 58.76 59.46 58.29 58.56 60.27 60.14 59.70 59.18 54.47 54.12 53.95 53.81 53.30 50.49 50.21 49.74 50.24 48.69 46.48 45.44 44.29 44.17 43.13 41.75 40.78 39.71 38.44 36.69 34.96 32.08 30.42 33.73 33.63 36.25 39.70 41.87 42.09 42.58 42.62 42.94 42.63 42.32
59.11 59.99 58.87 58.42 58.72 59.21 59.86 59.03 58.78 56.41 55.14 54.95 53.12 52.11 51.08 50.75 50.33 48.73 47.58 45.71 44.09 44.17 44.51 43.61 41.67 40.32 38.97 37.02 35.33 33.81 31.85 30.93 32.98 32.24 36.55 41.70 42.23 41.86 42.26 42.63 42.63 41.49 40.79
MSLP
1007.33 1007.96 1008.67 1009.16 1009.75 1010.26 1010.61 1010.99 1011.24 1011.41 1011.67 1012.13 1012.49 1012.91 1013.17 1013.67 1014.05 1014.37 1014.52 1015.07 1015.66 1015.09 1016.03 1015.86 1016.19 1016.27 1016.69 1016.48 1016.58 1016.98 1017.00 1016.85 1016.63 1015.61 1015.27 1014.47 1013.80 1013.23 1012.72 1012.23 1011.30 1010.12 1009.17
1005.84 1006.90 1007.63 1008.29 1008.85 1009.38 1009.85 1010.21 1010.49 1010.79 1011.25 1011.63 1012.21 1012.53 1013.08 1013.25 1013.95 1014.37 1014.71 1015.07 1015.27 1015.07 1015.52 1015.96 1016.39 1016.41 1016.43 1016.32 1016.49 1016.73 1016.79 1016.50 1016.33 1015.73 1015.09 1014.54 1013.80 1012.95 1012.54 1011.57 1010.19 1009.21 1008.34
1004.75 1005.75 1006.65 1007.30 1007.95 1008.49 1009.02 1009.52 1009.96 1010.45 1010.91 1011.39 1011.85 1012.32 1012.83 1013.06 1013.94 1014.35 1014.64 1014.85 1014.79 1014.99 1015.35 1015.79 1016.06 1016.09 1016.24 1016.18 1016.35 1016.67 1016.66 1016.49 1016.19 1015.81 1015.07 1014.40 1013.62 1012.93 1012.05 1010.75 1009.54 1008.42 1007.28
1003.84 1004.53 1005.33 1006.05 1006.76 1007.51 1008.16 1008.76 1009.42 1010.13 1010.73 1011.08 1011.58 1012.10 1012.65 1013.14 1014.02 1014.42 1014.69 1014.94 1015.13 1015.18 1015.16 1015.46 1015.59 1015.77 1016.15 1016.17 1016.12 1016.50 1016.43 1016.20 1015.91 1015.57 1014.95 1014.33 1013.61 1012.82 1012.26 1010.77 1008.49 1007.86 1006.73
1002.97 1003.73 1004.12 1004.97 1005.73 1006.66 1007.62 1008.44 1009.17 1009.69 1010.12 1010.68 1011.42 1012.12 1012.88 1013.66 1013.83 1014.28 1014.03 1014.49 1015.07 1015.46 1015.45 1015.21 1015.64 1015.77 1015.91 1015.94 1016.14 1016.33 1016.38 1015.92 1015.46 1015.16 1014.87 1014.50 1013.77 1013.21 1012.13 1010.83 1009.69 1007.68 1006.19
1002.20 1002.79 1003.75 1004.65 1005.54 1006.55 1007.45 1008.14 1008.59 1009.09 1009.78 1010.62 1011.51 1012.15 1012.77 1013.17 1013.35 1013.12 1014.28 1014.25 1014.67 1015.27 1015.54 1015.54 1015.83 1015.81 1015.97 1015.95 1016.17 1015.83 1015.82 1015.94 1015.52 1015.03 1014.81 1014.59 1014.03 1013.60 1012.39 1011.02 1009.48 1007.99 1006.05
1001.52 1002.45 1003.47 1004.54 1005.50 1006.40 1007.07 1007.70 1008.29 1008.85 1009.58 1010.54 1011.27 1011.94 1012.64 1012.39 1013.07 1012.79 1012.91 1014.28 1014.49 1014.44 1014.90 1015.05 1015.27 1015.75 1015.93 1016.09 1016.07 1015.85 1015.63 1015.24 1015.18 1014.87 1014.67 1014.31 1013.84 1013.14 1012.43 1010.69 1009.19 1008.24 1006.71
1001.83 1002.56 1003.41 1004.31 1005.35 1006.21 1006.87 1007.59 1008.34 1009.08 1009.96 1010.78 1011.15 1011.31 1011.67 1012.81 1012.21 1013.72 1013.41 1014.03 1014.58 1014.23 1014.46 1014.99 1015.19 1015.87 1016.08 1016.38 1016.19 1015.99 1015.69 1015.51 1014.80 1014.49 1014.18 1013.57 1013.17 1012.64 1012.14 1011.33 1009.66 1008.17 1006.64
1002.20 1002.81 1003.53 1004.33 1005.31 1006.21 1007.10 1007.71 1008.49 1008.99 1009.37 1010.45 1010.74 1011.50 1012.23 1012.77 1012.97 1013.17 1013.96 1014.36 1014.89 1014.70 1015.23 1015.13 1015.38 1015.72 1016.11 1016.22 1016.25 1016.46 1016.16 1015.48 1014.48 1013.79 1013.38 1012.91 1012.54 1012.03 1011.70 1010.84 1009.17 1007.75 1006.26
1002.49 1003.09 1003.75 1004.57 1005.43 1006.27 1006.81 1007.51 1008.00 1008.91 1010.21 1010.08 1011.41 1011.79 1012.39 1012.66 1013.40 1013.87 1014.40 1014.27 1015.00 1015.16 1015.52 1015.57 1015.60 1015.81 1016.06 1016.12 1016.25 1016.50 1016.51 1015.81 1014.93 1014.08 1013.34 1012.73 1012.24 1011.72 1011.31 1011.23 1010.27 1008.85 1007.42
1002.82 1003.56 1004.28 1004.87 1005.41 1005.99 1006.79 1007.61 1008.72 1009.56 1010.05 1011.26 1011.25 1012.33 1012.55 1012.80 1013.23 1013.33 1014.05 1014.55 1015.04 1015.52 1015.58 1015.61 1015.71 1015.83 1015.90 1016.01 1016.10 1016.43 1016.33 1015.65 1014.89 1014.29 1013.61 1012.92 1012.15 1011.61 1011.29 1011.04 1010.52 1009.61 1008.40
1003.34 1004.15 1004.98 1005.48 1005.77 1006.52 1007.38 1008.53 1009.06 1009.29 1010.22 1011.41 1011.67 1012.62 1013.16 1013.74 1013.85 1014.12 1014.62 1014.60 1015.12 1015.32 1015.68 1015.61 1015.69 1015.81 1015.83 1016.00 1016.05 1016.23 1015.99 1015.49 1015.05 1014.57 1013.92 1013.29 1012.59 1011.77 1011.23 1011.11 1010.67 1009.95 1009.30
1003.93 1004.65 1005.49 1006.01 1006.70 1007.41 1008.16 1008.98 1009.94 1009.99 1010.59 1011.40 1011.84 1012.59 1013.50 1014.05 1014.71 1014.93 1014.77 1014.95 1015.14 1015.18 1015.63 1015.47 1015.51 1015.70 1015.94 1015.93 1016.15 1016.21 1015.97 1015.64 1015.44 1014.91 1014.28 1013.67 1012.89 1012.09 1011.61 1011.15 1010.71 1010.17 1009.63
1004.67 1005.49 1006.19 1006.58 1007.17 1007.75 1008.57 1009.40 1010.10 1010.64 1011.07 1011.49 1012.02 1012.83 1013.66 1013.18 1014.53 1015.07 1015.04 1015.28 1015.20 1015.37 1015.51 1015.45 1015.49 1015.79 1016.01 1016.00 1016.27 1016.44 1016.23 1015.87 1015.69 1015.23 1014.64 1013.96 1013.18 1012.52 1011.86 1011.44 1011.15 1010.59 1010.09
1005.34 1006.03 1006.68 1007.24 1008.07 1009.21 1010.25 1011.09 1011.03 1011.69 1011.84 1011.85 1012.11 1012.81 1013.75 1014.18 1014.41 1014.81 1014.86 1015.07 1015.29 1015.37 1015.49 1015.70 1016.13 1016.48 1016.53 1016.69 1016.82 1016.86 1016.57 1016.28 1016.04 1015.44 1014.93 1014.39 1013.85 1013.18 1012.59 1011.85 1011.47 1011.17 1010.76
1005.77 1006.51 1007.20 1008.07 1008.99 1009.95 1010.83 1011.75 1011.97 1011.92 1011.62 1011.71 1011.78 1012.25 1013.28 1013.26 1014.06 1014.49 1014.78 1015.14 1015.37 1015.45 1015.96 1016.49 1016.89 1016.96 1017.16 1017.34 1017.39 1017.35 1017.13 1016.84 1016.32 1015.70 1015.25 1014.85 1014.50 1013.97 1013.47 1012.75 1012.23 1011.95 1011.68
1006.12 1006.71 1007.45 1008.35 1009.24 1010.14 1010.91 1011.46 1012.19 1012.73 1012.39 1012.53 1012.79 1012.70 1012.95 1013.71 1014.19 1014.56 1014.97 1015.39 1015.57 1015.84 1016.41 1016.92 1017.24 1017.32 1017.54 1017.65 1017.69 1017.61 1017.49 1017.07 1016.57 1016.07 1015.76 1015.32 1014.91 1014.39 1014.05 1013.67 1013.25 1012.92 1012.32
1006.34 1006.90 1007.44 1008.15 1009.05 1010.05 1010.67 1011.29 1011.71 1012.36 1012.99 1013.67 1014.17 1014.03 1014.09 1014.40 1014.77 1015.02 1015.29 1015.47 1016.05 1016.40 1016.81 1017.22 1017.51 1017.63 1017.85 1017.92 1017.81 1017.70 1017.48 1017.17 1016.87 1016.45 1016.01 1015.51 1015.26 1015.09 1014.69 1014.47 1014.05 1013.65 1013.17
1006.76 1007.28 1007.79 1008.37 1009.00 1009.71 1010.37 1011.14 1011.81 1012.47 1013.39 1014.16 1014.75 1014.95 1015.04 1015.08 1015.17 1015.37 1015.60 1015.99 1016.38 1016.85 1017.08 1017.34 1017.60 1017.77 1017.85 1017.83 1017.71 1017.60 1017.56 1017.51 1017.29 1016.88 1016.43 1016.08 1015.75 1015.55 1015.27 1014.86 1014.51 1014.15 1013.85
1007.07 1007.56 1007.89 1008.28 1008.83 1009.49 1010.14 1010.96 1011.93 1012.74 1013.41 1014.13 1014.59 1015.05 1015.31 1015.31 1015.46 1015.72 1015.97 1016.21 1016.63 1017.07 1017.22 1017.42 1017.71 1017.88 1017.97 1017.98 1017.94 1017.86 1017.89 1017.83 1017.71 1017.37 1016.94 1016.52 1016.11 1015.85 1015.69 1015.35 1015.14 1014.83 1014.59
1007.16 1007.55 1007.65 1008.15 1008.60 1009.15 1009.74 1010.49 1011.25 1012.01 1012.95 1013.61 1014.13 1014.65 1014.75 1015.03 1015.24 1015.79 1016.19 1016.40 1016.76 1017.03 1017.29 1017.69 1017.95 1017.97 1018.15 1018.31 1018.33 1018.41 1018.43 1018.34 1018.16 1017.85 1017.49 1017.05 1016.54 1016.41 1015.99 1015.72 1015.63 1015.31 1014.94
1006.73 1007.28 1007.55 1007.81 1008.07 1008.83 1009.62 1010.31 1011.13 1011.81 1012.50 1013.22 1013.86 1014.31 1014.53 1015.03 1015.27 1015.75 1016.13 1016.42 1016.68 1016.95 1017.24 1017.69 1018.07 1018.25 1018.44 1018.65 1018.77 1018.90 1019.05 1019.05 1018.81 1018.47 1018.06 1017.63 1017.09 1016.64 1016.41 1016.19 1015.99 1015.88 1015.59
1006.57 1006.88 1007.21 1007.52 1007.76 1008.49 1009.27 1009.97 1010.63 1011.07 1011.83 1012.57 1013.42 1014.14 1014.77 1015.00 1015.18 1015.59 1016.10 1016.41 1016.82 1017.39 1017.60 1017.87 1018.31 1018.70 1018.79 1018.95 1019.09 1019.37 1019.57 1019.60 1019.37 1018.95 1018.60 1018.11 1017.64 1017.10 1016.76 1016.67 1016.53 1016.43 1016.22
1006.34 1006.41 1006.75 1007.17 1007.66 1008.36 1009.00 1009.68 1010.32 1010.77 1011.53 1012.32 1012.93 1013.67 1014.52 1014.85 1015.15 1015.62 1016.19 1016.79 1017.17 1017.57 1017.82 1018.23 1018.55 1018.96 1019.15 1019.33 1019.53 1019.73 1019.87 1019.79 1019.39 1019.15 1018.82 1018.44 1018.01 1017.47 1017.12 1017.01 1016.95 1016.86 1016.72
1006.18 1006.43 1006.80 1007.37 1007.85 1008.31 1008.87 1009.51 1010.44 1010.99 1011.39 1012.00 1012.86 1013.57 1014.15 1014.51 1015.09 1015.71 1016.29 1016.71 1017.31 1017.90 1018.16 1018.47 1018.84 1019.14 1019.47 1019.75 1019.93 1020.01 1020.01 1019.75 1019.34 1019.07 1018.71 1018.32 1018.13 1017.72 1017.47 1017.35 1017.21 1017.13 1017.09
1006.72 1006.84 1007.17 1007.65 1008.13 1008.41 1008.94 1009.40 1010.24 1010.97 1011.40 1011.87 1012.43 1013.18 1013.71 1014.40 1015.07 1015.75 1016.39 1016.87 1017.41 1017.92 1018.25 1018.67 1019.01 1019.35 1019.69 1020.02 1020.21 1020.20 1020.00 1019.66 1019.30 1018.96 1018.65 1018.35 1018.31 1018.10 1017.85 1017.69 1017.50 1017.63 1017.70
Wind_Speed
19 17 17 15 14 13 13 9 9 7 7 7 10 10 10 7 7 6 7 3 5 7 3 3 3 3 1 2 2 2 2 2 4 6 5 9 8 10 11 15 16 17 14
19 18 17 15 15 13 12 13 7 11 6 8 9 9 7 7 4 6 5 3 7 5 5 4 4 1 3 2 1 3 3 3 1 11 7 8 9 7 12 19 15 14 15
18 18 16 16 15 15 13 11 12 8 6 9 10 10 9 6 5 3 5 6 3 5 6 4 3 1 2 1 2 3 3 3 4 4 8 5 6 9 14 18 17 16 13
17 19 19 18 16 14 13 11 9 7 6 7 10 9 6 2 3 4 4 2 2 3 3 4 2 1 2 2 3 2 4 4 4 4 5 6 6 9 12 16 18 12 14
17 17 18 16 14 13 9 7 7 7 7 8 8 6 5 3 3 6 7 7 5 3 2 2 2 3 4 6 2 2 4 3 3 4 4 4 7 10 14 11 12 15 13
15 16 13 13 10 9 8 8 7 7 7 8 8 8 7 5 9 7 5 6 4 5 1 3 2 6 6 5 3 8 6 3 5 3 3 6 6 8 11 12 11 13 13
14 12 12 11 10 8 8 7 7 7 9 9 8 7 5 6 5 8 14 6 4 5 2 2 2 4 6 5 7 8 9 12 9 3 5 5 5 4 9 17 16 14 13
8 11 12 13 11 8 8 8 8 8 9 9 7 8 8 3 10 7 9 6 3 4 4 2 3 6 6 5 6 6 7 7 7 6 6 8 7 6 5 9 14 12 11
9 11 11 12 11 10 10 11 10 10 9 6 7 6 6 6 6 8 7 4 2 2 6 8 8 6 2 4 5 6 7 7 9 14 11 13 13 13 8 9 15 13 13
8 9 10 11 12 12 12 12 9 8 4 7 4 6 9 9 5 9 3 2 4 5 5 6 9 6 4 4 3 4 6 7 7 10 9 6 8 8 7 5 10 12 10
12 12 11 10 11 11 9 7 5 6 8 4 7 5 6 8 7 10 6 4 4 3 4 3 2 2 2 3 3 3 5 6 9 6 5 6 6 6 3 4 8 10 11
12 12 9 9 8 7 9 7 8 9 9 6 6 5 5 5 8 7 9 9 4 4 4 2 3 2 5 7 6 6 9 6 5 5 4 6 8 8 8 4 6 9 10
12 12 10 9 9 8 9 8 7 7 7 6 5 7 6 5 3 4 8 8 6 4 1 1 2 4 6 5 7 5 6 5 5 4 4 6 7 7 7 3 5 4 10
12 11 10 11 10 8 6 5 4 4 4 5 5 6 5 7 4 2 3 3 4 3 3 4 2 2 4 3 5 5 4 5 4 4 4 5 7 7 7 4 3 4 7
10 9 8 7 7 8 9 6 4 5 2 3 3 5 7 4 4 5 6 4 4 3 3 4 4 4 5 5 4 4 5 5 5 5 5 7 8 8 6 5 4 4 5
9 5 5 6 7 6 6 6 15 8 11 9 4 8 2 10 10 11 12 10 9 6 5 4 3 4 5 4 4 4 4 6 5 5 5 4 6 6 8 7 4 4 5
7 7 6 7 6 7 6 6 6 6 17 18 12 10 11 12 11 12 10 11 9 6 5 4 4 5 3 4 3 3 3 4 5 4 4 5 5 5 5 5 7 5 4
8 10 6 6 7 7 6 6 5 6 5 4 10 8 10 11 10 10 9 7 4 5 4 4 4 4 3 2 2 1 2 4 4 4 5 5 5 3 4 5 5 6 5
6 5 5 5 5 5 6 6 6 7 6 5 4 6 5 8 9 9 7 3 5 5 4 5 4 3 2 2 3 3 2 3 4 4 5 5 5 4 3 5 5 8 7
5 7 5 5 4 5 6 8 7 7 8 6 4 4 4 3 2 2 2 4 5 5 4 5 3 3 3 4 5 4 4 5 5 5 5 5 5 5 4 5 5 4 4
5 4 8 6 5 5 5 8 10 9 8 7 6 5 9 5 5 4 4 5 5 5 5 5 4 4 4 4 5 5 5 5 5 5 6 5 5 5 5 5 4 5 5
5 5 4 4 5 6 6 8 8 8 8 8 6 6 10 3 2 7 6 6 5 5 4 5 4 4 5 5 5 5 5 5 5 6 5 6 6 5 4 4 5 5 5
2 6 6 3 5 8 7 7 8 8 10 10 8 6 5 4 4 7 7 6 6 5 5 5 5 5 5 5 5 5 4 3 4 4 5 5 6 5 4 4 5 5 5
2 6 6 6 5 6 6 6 5 8 9 10 8 7 5 6 8 7 6 6 6 5 6 6 6 7 6 5 5 4 4 4 4 4 6 5 5 6 4 4 4 5 5
2 6 7 6 6 7 8 7 7 7 10 10 9 6 6 7 6 8 7 6 6 6 6 6 6 8 8 8 7 6 4 4 4 6 4 5 5 8 5 3 3 5 6
5 5 6 5 5 5 6 6 7 8 9 9 7 9 8 7 6 7 7 8 6 6 7 6 7 9 9 6 6 5 4 5 7 7 5 3 5 5 5 4 7 4 6
Wind_Direction
196 197 202 206 203 205 213 211 216 215 203 173 168 164 179 181 188 161 183 189 234 156 186 176 225 198 256 260 322 347 307 280 286 309 309 313 304 307 315 313 305 306 299
191 196 200 201 203 205 207 212 199 217 198 165 162 167 169 195 177 195 188 212 235 169 185 207 220 248 283 314 122 292 271 285 310 313 313 312 307 308 314 315 313 305 296
184 189 196 199 198 205 207 203 209 214 189 160 161 174 187 206 169 192 181 248 179 182 181 188 188 253 328 309 299 316 325 314 304 292 304 293 296 320 316 317 316 304 298
184 187 192 194 196 196 200 195 192 189 192 168 167 175 170 163 119 202 243 170 176 185 177 160 187 97 307 288 39 33 320 312 294 285 290 293 306 322 314 323 317 322 311
189 190 195 191 189 190 179 168 173 179 200 151 147 137 117 114 200 203 199 168 188 197 143 118 72 86 96 101 114 300 303 296 299 294 289 306 313 326 336 324 307 308 313
182 194 180 175 160 159 146 166 170 175 139 121 128 130 166 201 207 212 168 143 151 134 198 2 326 104 122 116 44 349 333 309 297 292 309 305 298 316 337 325 319 326 328
181 174 157 148 133 142 154 160 169 138 125 132 145 150 176 142 86 116 120 120 154 136 152 147 205 87 64 35 349 345 336 329 319 307 305 303 278 306 317 344 336 324 316
142 136 135 136 139 147 147 142 103 113 118 142 162 167 145 134 119 65 110 143 129 155 214 244 83 84 53 17 352 352 335 312 310 311 278 279 242 270 316 326 323 311 311
116 126 133 137 136 129 119 114 127 137 150 152 167 124 118 124 142 159 115 127 219 258 62 85 100 92 72 29 27 345 333 308 314 306 293 293 256 273 313 333 350 341 340
123 119 119 121 123 126 133 147 150 143 153 99 118 123 139 143 136 127 130 114 87 103 89 77 81 89 65 41 17 333 323 296 317 319 330 327 300 307 332 330 341 347 340
113 112 111 121 129 132 122 114 121 117 107 115 111 139 137 138 157 132 121 105 115 96 124 93 53 213 74 328 295 316 269 296 316 317 327 320 323 325 344 338 351 351 349
117 108 102 102 102 105 108 97 111 129 125 146 135 106 71 77 91 113 123 121 134 103 115 164 183 55 1 332 354 320 326 352 332 327 337 348 338 340 347 343 325 3 8
108 107 110 95 92 102 110 118 144 132 137 158 148 130 117 109 108 160 135 134 113 93 118 288 355 346 344 357 42 51 12 3 338 339 343 342 343 319 326 338 325 1 16
107 114 118 123 129 129 138 139 134 138 156 154 139 129 147 135 157 204 163 136 80 57 350 357 11 28 14 28 62 25 5 354 345 324 335 331 335 343 0 338 334 328 38
109 114 117 117 101 76 61 34 54 61 57 119 140 137 150 157 180 189 154 132 142 119 51 49 54 47 42 28 32 16 5 6 353 344 6 360 356 358 337 346 351 336 18
107 104 107 97 93 96 100 85 50 59 48 44 136 146 40 120 142 145 120 123 109 89 66 77 57 56 54 38 28 19 7 4 341 352 353 1 353 357 358 346 347 4 9
123 129 121 124 117 122 118 120 113 42 64 50 42 88 119 144 129 123 126 123 96 82 92 83 86 73 61 54 39 45 3 334 331 348 349 346 347 348 357 357 2 354 346
103 109 117 126 135 133 144 136 124 120 103 62 28 70 81 112 116 109 101 87 70 47 91 99 91 81 60 52 358 4 351 352 341 346 347 352 350 338 0 357 350 5 343
106 112 120 122 134 141 139 134 133 113 102 113 108 58 73 87 96 82 56 88 112 112 107 91 97 96 72 25 358 1 89 29 7 354 354 358 358 355 348 10 6 2 11
98 134 137 137 142 147 138 143 126 122 132 141 130 145 159 111 112 119 105 111 95 95 101 99 90 93 64 44 19 25 58 42 13 1 350 355 356 2 10 34 12 0 1
154 166 144 168 163 163 140 137 153 150 150 151 148 173 179 148 166 129 112 93 102 92 79 102 99 87 69 53 42 34 35 33 12 1 357 346 1 6 355 32 12 11 12
155 158 159 167 148 142 131 147 151 141 148 147 151 178 179 187 103 124 115 112 109 105 108 112 94 84 86 75 61 52 36 26 7 358 356 352 342 3 12 29 17 11 13
216 163 179 172 153 131 135 143 160 148 156 147 154 155 167 191 153 118 125 118 110 94 75 85 79 73 66 71 63 61 53 14 343 354 350 346 333 354 14 31 29 19 19
303 203 155 156 131 134 138 135 130 131 125 139 144 147 146 130 120 122 117 118 111 108 101 96 88 87 73 62 59 57 40 4 347 351 340 336 333 355 8 36 25 30 32
63 105 97 106 131 137 138 136 132 135 140 143 145 136 134 126 123 123 129 123 119 117 112 106 100 94 81 73 59 46 9 343 350 326 337 336 347 22 5 34 46 43 46
79 85 106 107 104 116 129 126 133 151 148 152 138 137 142 135 128 132 128 125 121 117 122 122 122 114 102 83 64 32 14 5 356 349 350 25 33 22 11 28 51 56 58